Вернуться в каталог

TITAN 3C TRANSTAGE DEB

АктивенVLEO
NORAD 3462·DEBRIS·🇺🇸 United States

Запущен Oct 15, 1965 с Cape Canaveral Space Force Station

Loading…

Ближайшие Пролёты (ближайшие 24 часа)

TLE

СвежийSource: Space-Track

Эпоха: Sep 14, 2026, 13:05 UTC

1  3462U 65082PT  26257.54515493  .00007457  00000-0  23084-3 0  9997
2  3462  32.0291  90.2183 0010223 272.8982  87.0512 15.32121868277223

Отслеживайте TITAN 3C TRANSTAGE DEB в реальном времени с AllMySat

Download on the App Store